Location: Yucca Valley
(34.1140°N, 116.4310°W)
Time: 23:55:42
(UTC-07:00)

Daily predictions for brighter satellites

Satellite Brightness Start Highest point End
(mag) Time Altitude Azimuth Time Altitude Azimuth Time Altitude Azimuth
Meteor 1-5 Rocket 4.3 19:33:17 10° SSE 19:38:24 52° E 19:43:40 10° NNE
Cosmos 1536 3.2 19:35:16 10° SSW 19:39:14 72° W 19:43:14 10° N
Cosmos 1025 Rocket 3.0 19:35:42 10° N 19:40:04 78° E 19:44:22 10° S
Cosmos 2297 Rocket 3.5 19:36:41 10° N 19:41:05 23° ENE 19:45:27 10° ESE
NOAA 12 4.4 19:41:17 10° S 19:46:30 73° WSW 19:51:44 10° NNW
Cosmos 1892 Rocket 3.7 19:43:05 10° N 19:47:31 56° E 19:51:54 10° SSE
Cosmos 1455 Rocket 3.2 19:43:23 10° SSE 19:47:34 50° E 19:51:46 10° NNE
HJ-1C 3.3 19:44:58 10° SSE 19:48:13 89° ENE 19:51:32 10° N
Meteor 2-14 Rocket 4.4 19:42:10 10° S 19:48:15 70° E 19:54:22 10° NNE
Meteor 1-29 3.3 19:45:22 10° N 19:48:48 72° WNW 19:52:16 10° SSW
Resurs 1-3 3.6 19:52:54 10° SSE 19:57:16 80° ENE 20:01:40 10° N
Cosmos 2123 Rocket 4.1 19:57:21 10° N 20:03:26 57° E 20:09:28 10° SSE
SL-24 R/B - RUBIN 2 4.3 20:04:42 10° SSW 20:10:17 69° ESE 20:16:36 10° NE
Cosmos 1777 Rocket 4.4 20:07:03 10° NNW 20:12:16 66° WSW 20:17:28 10° S
OAO 2 Rocket 3.3 20:08:03 10° W 20:13:03 87° N 20:17:25 14° E
Cosmos 1697 Rocket 3.0 20:08:45 10° S 20:14:00 41° ESE 20:19:16 10° NE
Myojo/LAPS 3.8 20:15:41 10° WSW 20:17:55 26° S 20:18:41 21° SE
Resurs 01 Rocket 3.0 20:15:17 10° S 20:19:26 40° W 20:23:38 10° NNW
Delta 2 Rocket 4.1 20:15:10 10° WNW 20:20:53 72° SSW 20:24:27 21° ESE
Cosmos 2278 4.5 20:16:06 10° SW 20:21:39 56° WNW 20:27:15 10° NNE
H-2A R/B 2.7 20:21:35 10° SSE 20:25:26 78° ENE 20:29:21 10° N
ALOS 2.3 20:20:48 10° SSE 20:25:28 86° WSW 20:30:10 10° NNW
CZ-4B DEB 3.6 20:22:43 10° S 20:25:53 52° W 20:29:07 10° NNW
Cosmos 1975 2.8 20:21:59 10° S 20:26:03 69° E 20:30:08 10° NNE
USA 186 1.5 20:24:35 18° SSE 20:26:45 69° ENE 20:29:43 10° N
Cosmos 1153 Rocket 4.4 20:23:08 10° S 20:29:16 66° E 20:35:21 10° NNE
NOSS 3-4 (A) 4.0 20:23:30 10° NNW 20:30:38 79° WSW 20:37:48 12° SSE
NOSS 3-4 (C) 4.0 20:23:37 10° NNW 20:30:46 80° WSW 20:37:52 12° SSE
Lacrosse 5 rocket 1.2 20:32:48 10° NNW 20:36:26 55° NE 20:37:27 39° ESE
OTV 4 0.3 20:33:36 10° WNW 20:36:34 86° SSW 20:37:04 57° ESE
Cosmos 1980 Rocket 2.6 20:31:54 10° S 20:37:06 39° ESE 20:42:19 10° NE
Envisat 3.7 20:40:39 29° E 20:41:59 33° ENE 20:46:30 10° N
Cosmos 2298 Rocket 4.3 20:37:21 10° N 20:42:31 49° ENE 20:44:41 31° SE
Cosmos 1447 Rocket 4.5 20:36:38 10° N 20:42:56 69° E 20:48:17 15° SSE
Cosmos 1802 Rocket 4.4 20:40:41 19° SSE 20:44:44 42° E 20:50:42 10° NNE
CZ-2D R/B 4.2 20:42:25 10° S 20:46:08 47° W 20:49:54 10° NNW
Iridium 4 Rocket 3.1 20:43:25 10° N 20:48:22 80° E 20:51:24 21° S
Cosmos 1937 Rocket 4.2 20:43:35 10° N 20:48:25 36° ENE 20:49:28 32° E
Tiangong 1 3.2 20:48:25 10° NW 20:50:39 18° N 20:51:20 17° NNE
Hubble Space Telescope 2.9 20:52:22 10° SW 20:54:38 14° SSW 20:55:13 14° SSW
Cosmos 2016 Rocket 4.3 20:55:44 35° SE 20:57:28 43° E 21:03:14 10° NNE
Cosmos 1500 3.4 20:55:52 16° SSW 20:58:46 69° W 21:02:31 10° N
Cosmos 1939 Rocket 3.0 21:01:49 57° E 21:01:53 57° ENE 21:05:58 10° N
Cosmos 1825 Rocket 4.1 21:03:13 10° N 21:06:47 42° NE 21:06:47 42° NE
Cosmos 2150 Rocket 3.8 21:03:25 10° NNW 21:08:35 77° ENE 21:09:44 54° SE
ERS-1 Rocket 2.8 21:08:10 45° SSE 21:09:45 86° ENE 21:14:48 10° NNW
Cosmos 2173 Rocket 3.9 21:03:42 11° S 21:09:46 80° E 21:16:07 10° N
Cosmos 2227 Rocket 3.3 21:04:43 10° NW 21:09:59 41° WSW 21:14:16 15° S
Cosmos 2322 Rocket 4.4 21:14:22 11° NE 21:14:22 11° NE 21:14:38 10° NE
BREEZE-M TANK 3.6 21:02:35 10° WNW 21:11:08 42° NNE 21:12:07 35° NE
Cosmos 2098 Rocket 4.4 21:10:28 42° ESE 21:11:16 44° E 21:17:02 10° NNE
Cosmos 1340 4.3 21:09:51 10° N 21:11:43 25° NNE 21:11:43 25° NNE
Lacrosse 5 2.3 21:10:08 10° NNW 21:14:59 44° NE 21:15:16 44° NE
YAOGAN 11 4.4 21:15:32 46° SSW 21:16:45 67° WSW 21:21:12 10° NNW
H-2A R/B 2.8 21:17:55 38° NNE 21:17:55 38° NNE 21:20:48 10° N
Meteor 1-21 4.4 21:12:19 10° N 21:17:59 54° E 21:18:18 53° E
SPOT 5 3.4 21:19:02 45° NE 21:19:02 45° NE 21:23:13 10° N
Cosmos 2360 4.1 21:20:15 50° S 21:21:38 69° ESE 21:27:20 10° NNE
DELTA 2 R/B (1) 3.4 21:16:56 10° WNW 21:22:31 86° NNE 21:23:11 70° E
Cosmos 1763 Rocket 3.3 21:21:33 58° S 21:22:33 83° ESE 21:27:39 10° NNE
Cosmos 2100 Rocket 4.2 21:17:21 10° SSW 21:23:38 72° W 21:29:52 10° N
Cosmos 2297 Rocket 3.1 21:19:56 10° NW 21:25:16 43° WSW 21:28:02 25° SSW
Cosmos 1898 Rocket 3.7 21:22:06 10° NNW 21:27:20 66° WSW 21:28:26 52° SSW
Cosmos 2061 Rocket 4.2 21:25:05 12° SSW 21:31:04 69° W 21:37:19 10° N
RESURS DK-1 3.2 21:29:23 10° NNW 21:32:21 46° NNW 21:32:21 46° NNW
MetOp-A 4.3 21:36:02 60° NE 21:36:02 60° NE 21:40:46 10° N
Cosmos 1743 3.9 21:36:51 41° WNW 21:36:51 41° WNW 21:40:14 10° N
Tsikada Rocket 4.5 21:30:48 10° N 21:36:14 45° ENE 21:36:14 45° ENE
Cosmos 2084 4.3 21:33:54 10° NW 21:37:09 47° WNW 21:37:09 47° WNW
deb Chang Zheng 4 4.0 21:33:59 10° N 21:38:04 61° NW 21:38:04 61° NW
Cosmos 841 Rocket 3.7 21:44:51 66° W 21:45:10 68° WNW 21:50:23 10° NNE
Terra 4.3 21:50:19 11° NNE 21:50:19 11° NNE 21:50:36 10° NNE
Cosmos 1725 Rocket 3.9 21:57:34 78° N 21:57:34 78° N 22:03:20 10° N
OAO 2 Rocket 4.2 21:52:54 10° W 21:56:23 45° W 21:56:23 45° W
SL-16 R/B 3.9 22:09:54 23° NNE 22:09:54 23° NNE 22:11:57 10° NNE
ARGOS 4.2 22:16:34 40° NNW 22:16:34 40° NNW 22:19:57 10° NNW
CZ-3C R/B 4.1 22:05:48 10° W 22:20:08 23° SW 22:20:53 23° SW
Cosmos 1980 Rocket 4.2 22:16:33 10° WSW 22:21:09 25° WNW 22:25:48 10° N
H-2A R/B 4.1 22:39:08 20° N 22:39:08 20° N 22:40:39 10° N
Cosmos 2263 Rocket 4.1 22:46:44 10° NNW 22:48:52 24° N 22:48:52 24° N
Milstar 3 Cent rocket 4.2 22:36:47 10° W 22:51:21 48° SW 22:51:21 48° SW
Cosmos 2322 Rocket 4.1 22:56:06 25° NNW 22:56:06 25° NNW 22:58:56 10° N
